STARLINK-3956 (52560 NORAD) Tracking and Keplerian Element Data

This shows tracking and keplerian element data for the satellite.

Feedback or suggestion? Click here.




ElementValue
Catalog52560
NameSTARLINK-3956
Epoch Orbit130
Epoch Day167.08334491
Epoch Year2022
RAAN128.9974
Inclination53.2164
Eccentricity0.0002661
Argument of Perigee19.627
Mean Anonmoly46.0805
Mean Motion15.73231979
Decay Rate0.00028468
L11 52560U 22051AD 22167.08334491 .00028468 00000+0 20627-3 0 9995
L22 52560 53.2164 128.9974 0002661 19.6270 46.0805 15.73231979 1305

Live tracking and technical data element details for STARLINK-3956 (NORAD 52560). STARLINK-3956 can be tracked NOW for your location showing map with azimuth and elevation plus other details from your city location.

Track the satellite on the map from your city or location and see movement details for azimuth, elevation, latitude, longitude, range, height, and movement on the map or in text.







IsCatalogInMostPopularTable: catalog: 52560, numindb: 3
Update: records affected: 1



GetName: 52560 STARLINK-3956

Hit Count: updated at: Mon, 27 Jun 2022 05:29:57 GMT